weather.gov     
National Weather Service

Regional Weather Roundup
NWS Homepage
This page is being discontinued on March 12, 2014.
The same data is available at this site. Please update your bookmarks.
Thank you, and we apologize for the inconvenience.
Please send an email to SR-SRH.Webmaster@noaa.gov with any concerns.


Current Version
Previous Version:    01  02  03  04  05  06  07  08  09  10  11  12  13  14  15  16  17  18  19  20  21  22  23  24  25  26  
[Printable]
199
ASUS45 KBOU 241607
RWRCO

WEATHER ROUNDUP FOR COLORADO
NATIONAL WEATHER SERVICE DENVER/BOULDER CO
1000 AM MDT FRI OCT 24 2014

NOTE: "FAIR" INDICATES FEW OR NO CLOUDS BELOW 12000 FEET WITH NO
SIGNIFICANT WEATHER AND/OR OBSTRUCTIONS TO VISIBILITY.

COZ001>005-013-030-031-241700-
...NORTHWEST COLORADO...

CITY           SKY/WX    TMP DP  RH WIND       PRES   REMARKS
CRAIG          SUNNY     51  36  56 MISG      30.34R
HAYDEN         SUNNY     48  30  49 SE8       30.35R
MEEKER         SUNNY     52  35  52 CALM      30.35R
MOUNT WERNER   NOT AVBL
STEAMBOAT SPGS SUNNY     42  31  66 CALM      30.37S
WALDEN         MOSUNNY   54  25  32 S12G20    30.38S
$$

COZ006>008-011-241700-
...WEST CENTRAL VALLEYS...

CITY           SKY/WX    TMP DP  RH WIND       PRES   REMARKS
GRAND JUNCTION SUNNY     58  38  47 SE10      30.32R
MONTROSE       SUNNY     56  28  34 S7        30.38S
EAGLE          MOSUNNY   39  34  81 CALM      30.43F
RIFLE          SUNNY     46  35  65 CALM      30.37R
DELTA          SUNNY     54  35  48 CALM      30.37S
NUCLA          SUNNY     52  30  43 CALM      30.41S
$$

COZ017>023-064>068-241700-
...SOUTHWEST COLORADO...

CITY           SKY/WX    TMP DP  RH WIND       PRES   REMARKS
DURANGO        SUNNY     48  37  65 N3        30.41S
CORTEZ         SUNNY     54  33  45 CALM      30.38S
PAGOSA SPRINGS SUNNY     51  33  49 E3        30.46S
TELLURIDE      SUNNY     51  22  31 CALM      30.54R
WOLF CREEK PAS SUNNY     45  14  29 SW7         N/A
$$

COZ009-010-012-014-032>034-037-058>063-241700-
...CENTRAL COLORADO...

CITY           SKY/WX    TMP DP  RH WIND       PRES   REMARKS
ASPEN          SUNNY     49  25  39 CALM      30.43S
BUENA VISTA    MOSUNNY   50  23  34 E7        30.42S
COPPER MTN     MOSUNNY   46   7  19 S15       30.64S
BERTHOUD PASS  FAIR      34  32  93 W22G29    30.65R WCI  22
COTTONWOOD PAS MOSUNNY   55  -2   9 W13G21    30.50S
GUNNISON       SUNNY     36  25  64 CALM      30.54S
KREMMLING      SUNNY     37  30  75 CALM        N/A
LEADVILLE      MOSUNNY   36  17  46 CALM      30.52S
MONARCH PASS   MOSUNNY   37  16  41 W31       30.73R
SALIDA         MOSUNNY   52  24  33 NW13      30.46F
SUNLIGHT       SUNNY     45  25  45 CALM      30.59R
WILKERSON PASS NOT AVBL
$$

COZ069>075-241700-
...SAN LUIS VALLEY/SANGRE DE CRISTO MOUNTAINS...

CITY           SKY/WX    TMP DP  RH WIND       PRES   REMARKS
ALAMOSA        SUNNY     48  31  51 CALM      30.45R
LA VETA PASS   SUNNY     46  30  53 S8G22     30.53R
SAGUACHE       SUNNY     54  25  32 NW14      30.45S
$$

COZ035-036-038>040-241700-
...NORTHERN COLORADO FRONT RANGE...

CITY           SKY/WX    TMP DP  RH WIND       PRES   REMARKS
DENVER INTL AP CLOUDY    64  28  25 SW8       30.20R
DMNS CITY PARK   N/A     62  30  30 S2G9      30.20S
AURORA         PTSUNNY   63  28  27 S9        30.23R
FRONT RANGE AP PTSUNNY   64  30  27 S13       30.22R
ERIE MUNI ARPT CLOUDY    65  30  27 CALM      30.18S
BOULDER MUN AP CLOUDY    64  27  24 SW3       30.19R
CENTENNIAL     CLOUDY    62  35  36 E3        30.24R
BROOMFIELD     NOT AVBL
FORT COLLINS   PTSUNNY   57  34  41 CALM      30.19S
LONGMONT       PTSUNNY   55  41  59 CALM      30.20S
$$

COZ041-046-047-076>085-087-088-241700-
...PIKES PEAK/PALMER DIVIDE AND SOUTHERN FOOTHILLS...

CITY           SKY/WX    TMP DP  RH WIND       PRES   REMARKS
COLO. SPRINGS  CLOUDY    71  24  17 W7        30.27R
A. F. ACADEMY  CLOUDY    69  17  14 NE5       30.28R
ELLICOTT       NOT AVBL
FALCON         CLOUDY    72  16  11 NW10      30.31R
FORT CARSON    CLOUDY    68  29  23 S7        30.25R
LIMON          PTSUNNY   71  30  21 W9        30.21R
MONUMENT HILL  CLOUDY    66  21  18 W10       30.30S
TRINIDAD       SUNNY     63  34  33 W7        30.26R
$$

COZ042>045-048>051-090-091-241700-
...NORTHEAST COLORADO...

CITY           SKY/WX    TMP DP  RH WIND       PRES   REMARKS
GREELEY ARPT   PTSUNNY   54  37  54 W6        30.18R
AKRON          CLOUDY    61  35  37 W13       30.15R
BURLINGTON     MOSUNNY   72  37  28 W6        30.14R
WRAY           CLOUDY    74  35  24 W7        30.10R
STERLING       CLOUDY    61  43  51 S8        30.11R
HOLYOKE        CLOUDY    73  37  27 W3        30.09R
FORT MORGAN    CLOUDY    58  38  46 W8        30.15S
$$

COZ086-089-092>099-241700-
...SOUTHEAST COLORADO...

CITY           SKY/WX    TMP DP  RH WIND       PRES   REMARKS
PUEBLO         PTSUNNY   69  31  24 W10       30.19S
LA JUNTA       SUNNY     65  36  34 SW10      30.18R
LAMAR          SUNNY     64  38  38 W13       30.14R
SPRINGFIELD      N/A     78  37  22 NW9       30.17R
$$




U.S. Dept. of Commerce
NOAA National Weather Service
1325 East West Highway
Silver Spring, MD 20910
E-mail: w-nws.webmaster@noaa.gov
Page last modified: May 16, 2007
NATIONAL WEATHER SERVICE: for Safety, for Work, for Fun - FOR LIFE